Regional Weather Roundup
Issued by NWS

Home | Current Version | Previous Version | Graphics & Text | Print | Product List | Glossary On
Versions: 1 2 3 4 5 6 7 8 9 10 11 12 13 14 15 16 17 18 19 20 21 22 23 24 25 26 27 28 29 30 31 32 33 34 35 36 37 38 39 40 41 42 43 44 45 46 47 48 49 50
000
ASUS43 KLOT 192008
RWRIL

ILLINOIS REGIONAL WEATHER ROUNDUP
NATIONAL WEATHER SERVICE CHICAGO/ROMEOVILLE IL
200 PM CST SUN FEB 19 2017

NOTE: "FAIR" INDICATES FEW OR NO CLOUDS BELOW 12,000 FEET WITH NO
SIGNIFICANT WEATHER AND/OR OBSTRUCTIONS TO VISIBILITY.

* THESE STATIONS ARE NOT UNDER NWS QUALITY CONTROL. THEY ALSO MAY NOT
  REPORT WEATHER SUCH AS PRECIPITATION OR FOG.

ILZ001-002-007-009-015-016-024-192100-
NORTHWEST ILLINOIS

CITY           SKY/WX    TMP DP  RH WIND       PRES   REMARKS
MOLINE         SUNNY     73  36  25 SE7       29.97F
STERLING*      SUNNY     67  37  33 VRB5      30.02F
SAVANNA*       SUNNY     66  36  33 S8        30.01S
$$

ILZ003-004-008-010-011-017-018-192100-
NORTH CENTRAL ILLINOIS

CITY           SKY/WX    TMP DP  RH WIND       PRES   REMARKS
ROCKFORD       PTSUNNY   66  39  37 S5        30.04F
FREEPORT*      MOSUNNY   64  40  40 S10       30.03F
ROCHELLE*      SUNNY     64  43  45 S10       30.03F
DE KALB*       SUNNY     65  42  41 S7        30.04F
PERU*          SUNNY     66  32  28 S3        30.03F
$$

ILZ005-006-012>014-019>023-192100-
NORTHEAST ILLINOIS

CITY           SKY/WX    TMP DP  RH WIND       PRES   REMARKS
CHICAGO-OHARE  MOSUNNY   68  31  25 N3        30.03F
CHICAGO-MIDWAY PTSUNNY   65  31  28 E7        30.04F
AURORA         SUNNY     67  40  37 SE6       30.04F
LANSING*       SUNNY     65  40  39 CALM      30.05S
JOLIET*        SUNNY     67  41  37 S7        30.04F
WAUKEGAN       SUNNY     53  33  46 E7        30.05F
DUPAGE AIRPORT SUNNY     67  35  30 MISG      30.03F
KANKAKEE*      SUNNY     62  44  52 CALM      30.07S
WHEELING       CLOUDY    61  32  33 NE9       30.05F
MORRIS*        SUNNY     66  40  39 CALM      30.03F
ROMEOVILLE*    SUNNY     66  44  45 S6        30.05S
NORTHERLY ISL    N/A     51  29  42 NE3         N/A
$$

LMZ740>746-192100-
SOUTHERN LAKE MICHIGAN

STATION/POSITION SKY/WX   TEMP    WIND        PRES    VSBY  WAVE
                          AIR SEA DIR/SP/G                  HT/PER
                          (F)     (DEG/KT/KT) (MB)    (MI)  (FT/S)
HARRISON CRIB              49      80/  6/  6   N/A
BURNHAM HARBOR             50      30/  3/  4   N/A
CALUMET HARBOR             49      50/  6/  7 1017.2F
BURNS HARBOR               45      60/  8/  8 1018.6S
MICHIGAN CITY              42      10/  4/  5   N/A
$$

ILZ025>027-034>036-040-047-049-050-058-095>099-192100-
WEST-CENTRAL ILLINOIS

CITY           SKY/WX    TMP DP  RH WIND       PRES   REMARKS
QUINCY         SUNNY     71  47  42 S10       29.99F
GALESBURG*     SUNNY     70  43  37 S6        30.00F
MACOMB*        SUNNY     71  47  42 S7        30.02F
JACKSONVILLE*  SUNNY     71  48  44 SE7       30.02F
PITTSFIELD*    SUNNY     73  48  41 SE6       30.02F
$$

ILZ028>032-037-038-041>044-048-051>054-059>061-192100-
CENTRAL ILLINOIS

CITY           SKY/WX    TMP DP  RH WIND       PRES   REMARKS
PONTIAC        SUNNY     68  39  35 CALM      30.05S
BLOOMINGTON    SUNNY     65  45  48 VRB5      30.06S
DECATUR        SUNNY     65  48  54 S6        30.05F
PEORIA         SUNNY     66  44  45 S9        30.03F
LACON*         SUNNY     68  39  34 SW7       30.02F
LINCOLN*       SUNNY     66  51  58 SE3       30.04F
SPRINGFIELD    SUNNY     68  48  48 SE7       30.04F
TAYLORVILLE    SUNNY     64  51  61 CALM      30.05F
$$

ILZ033-039-045-046-055>057-062-063-192100-
EAST-CENTRAL ILLINOIS

CITY           SKY/WX    TMP DP  RH WIND       PRES   REMARKS
CHAMPAIGN      SUNNY     66  45  46 VRB5      30.06S
RANTOUL*       SUNNY     65  47  51 CALM      30.06S
MATTOON        SUNNY     59  52  77 SW9       30.07R
PARIS*         SUNNY     64  50  59 S6        30.07S
$$

ILZ079-100>102-192100-
SOUTHWEST ILLINOIS

CITY           SKY/WX    TMP DP  RH WIND       PRES   REMARKS
ALTON          SUNNY     66  52  59 E7        30.05F
BELLEVILLE     SUNNY     64  58  82 E7        30.05F
CAHOKIA*       SUNNY     68  51  54 SE8       30.04F
SPARTA*        SUNNY     66  54  64 E6        30.06F
$$

ILZ064>066-069>071-074>076-080>082-084>086-088>090-092>094-192100-
SOUTH-CENTRAL ILLINOIS

CITY           SKY/WX    TMP DP  RH WIND       PRES   REMARKS
CARBONDALE     SUNNY     64  56  75 S3        30.07F
CAIRO*         CLOUDY    55  55  97 CALM      30.10S
EFFINGHAM*     SUNNY     61  53  74 S6        30.09S HAZE
MARION         SUNNY     68  64  88 S6        30.09F
MT. VERNON     PTSUNNY   61  53  75 S6        30.09S
CENTRALIA*     SUNNY     67  55  63 SE5       30.06F
SALEM*         SUNNY     67  52  58 S7        30.07F
METROPOLIS*    CLOUDY    55  53  91 CALM      30.11S
$$

ILZ067-068-072-073-078-083-087-091-192100-
SOUTHEAST ILLINOIS

CITY           SKY/WX    TMP DP  RH WIND       PRES   REMARKS
LAWRENCEVILLE  CLOUDY    56  49  77 S8        30.10F
FLORA*         CLOUDY    58  52  79 SE7       30.09F HAZE
FAIRFIELD*     CLOUDY    55  52  90 SE5       30.09F FOG
HARRISBURG*    CLOUDY    56  53  89 CALM      30.10F
ROBINSON*      SUNNY     60  49  67 S7        30.09F
CARMI*         CLOUDY    54  52  94 SE7       30.10F FOG
$$

ABBREVIATIONS USED IN REMARKS
   TC - TEMPERATURE IN CELSIUS
  WCI - WIND CHILL INDEX
   HX - HEAT INDEX
  VSB - VISIBILITY
$$




USA.gov is the U.S. government's official web portal to all federal, state and local government web resources and services.